RH
94 92 95 82 70 61 59 52 61 44 36 36 42 45 37 32 28 29 41 47 52 55 53 52 47 42 42 42 44 45 46 54 48 61 71 72 72 76 81 82 80 79 81 84
94 90 69 72 70 62 48 50 52 50 39 37 42 42 37 36 28 30 44 50 50 54 59 58 52 46 45 44 41 42 45 52 61 66 75 76 79 67 51 47 49 50 48 47
78 82 62 68 67 63 53 56 56 58 46 41 45 47 41 29 32 41 44 46 50 54 59 62 61 54 48 47 44 42 41 42 46 57 60 61 44 44 45 48 48 48 45 42
86 75 75 69 80 69 88 50 45 45 49 58 42 63 47 32 37 44 49 54 56 59 58 61 60 59 53 51 46 45 45 44 44 42 43 46 54 58 59 55 51 46 44 41
86 88 91 79 70 69 72 46 48 44 50 48 46 55 49 35 42 45 51 52 57 61 63 64 63 58 54 49 48 48 47 48 49 49 50 51 54 55 52 48 44 42 40 39
67 64 75 80 68 58 50 48 44 52 53 67 52 50 53 42 40 43 46 49 57 63 64 64 58 54 54 52 49 48 48 53 50 49 51 51 51 50 47 46 45 43 41 40
66 82 58 57 55 45 49 49 77 65 70 72 49 56 49 34 33 38 45 49 58 64 66 65 64 62 57 55 54 52 51 56 54 51 50 50 50 49 48 45 42 39 37 36
86 95 57 39 60 69 58 55 69 71 74 63 53 57 40 35 48 40 42 46 59 66 66 65 66 62 61 60 56 51 49 51 50 49 48 47 45 42 38 34 30 26 27 29
81 77 37 33 34 54 56 54 46 61 60 72 62 48 38 42 49 49 49 52 61 65 65 67 66 62 64 61 56 52 49 50 50 50 48 42 37 32 26 20 13 10 11 15
56 57 43 34 29 30 42 42 53 63 66 70 62 51 50 34 41 51 54 55 60 62 65 69 69 69 68 60 54 51 50 51 49 46 42 36 28 20 12 8 8 11 13 15
46 50 54 39 44 43 39 45 52 55 63 64 65 51 40 35 39 53 53 51 59 63 66 71 72 72 67 58 54 51 48 47 44 44 36 28 18 10 10 10 11 12 14 17
50 60 60 48 45 40 36 41 45 61 57 63 61 53 34 42 42 52 51 52 53 58 66 74 76 75 64 57 51 48 47 44 41 39 29 17 11 10 10 12 15 17 17 16
59 65 82 68 55 54 47 44 43 52 56 64 60 52 35 42 46 47 49 50 52 58 73 80 85 77 69 58 50 46 43 40 37 29 19 12 12 13 14 15 15 15 16 17
53 63 62 72 54 60 62 52 48 46 62 59 58 42 33 37 40 41 41 43 54 68 73 86 88 79 67 56 49 45 42 36 32 21 14 15 16 17 18 18 17 18 19 22
50 56 50 47 54 55 55 55 54 51 46 53 46 49 34 34 35 36 39 46 61 72 73 85 87 81 66 55 50 46 40 30 22 16 18 21 20 19 20 20 20 21 22 23
52 55 42 40 41 36 43 48 57 50 51 43 52 48 34 43 44 51 51 51 61 68 70 87 86 76 68 55 50 45 37 23 16 19 22 21 21 23 25 24 23 22 25 26
44 46 47 51 44 40 38 42 64 54 47 51 57 41 41 54 53 47 48 52 56 63 70 92 81 73 59 52 48 41 28 18 19 19 19 23 27 29 28 25 25 28 30 30
44 45 47 50 49 45 33 47 40 49 50 49 57 56 53 55 50 48 50 58 63 59 86 86 76 64 52 49 42 31 21 20 18 19 24 28 31 31 29 29 31 31 34 36
46 53 67 59 59 47 52 53 61 53 65 57 61 58 54 50 50 50 60 65 64 72 87 76 63 55 50 42 30 22 22 19 21 27 31 30 33 34 34 32 33 37 39 38
55 58 52 88 76 62 46 47 45 48 69 62 60 63 62 59 66 65 59 74 82 81 72 66 59 51 41 29 24 22 22 24 28 31 32 32 34 33 31 35 41 41 41 48
62 68 64 75 73 66 48 48 42 58 58 68 60 57 60 64 61 64 81 80 76 70 64 57 51 43 33 27 24 26 25 28 30 32 30 30 28 32 36 40 42 43 48 56
56 73 77 83 75 70 53 53 56 61 63 60 58 56 57 56 59 76 84 85 76 71 64 55 46 37 30 26 27 28 28 31 31 31 31 30 31 33 37 43 46 49 55 60
62 60 66 68 69 62 58 55 64 58 61 60 57 54 51 54 59 67 80 85 80 68 59 51 45 34 27 30 29 29 30 31 32 32 31 31 32 36 44 50 52 60 61 63
65 65 70 67 68 62 60 59 56 54 56 56 54 54 53 54 56 60 78 87 83 65 54 45 34 29 30 31 30 30 31 32 33 35 34 33 39 48 48 53 56 62 64 65
69 71 76 78 76 67 60 57 58 60 61 59 60 59 58 59 61 69 83 87 76 61 47 37 34 31 30 30 29 29 32 33 34 36 37 40 46 50 55 59 61 63 64 67
84 75 78 75 72 70 69 60 61 65 66 75 68 68 68 72 73 80 88 88 73 51 42 37 32 30 29 30 31 30 31 34 38 43 46 48 57 59 63 66 67 68 68 67
Wind_Speed
9 9 12 13 13 4 6 4 7 4 4 2 7 8 15 8 5 4 5 4 4 7 4 15 21 23 23 23 23 24 25 21 10 4 4 5 8 9 9 9 10 10 10 10
8 16 14 7 7 4 3 3 5 6 1 3 7 10 12 7 6 4 8 6 4 5 6 10 19 23 24 26 29 29 28 25 20 13 10 7 10 16 18 17 19 20 19 19
11 4 15 13 6 10 3 5 4 5 7 4 6 7 6 2 2 6 6 4 3 6 7 5 11 19 24 28 29 30 30 28 26 20 15 17 17 21 23 24 22 20 19 20
6 4 13 16 11 6 9 6 3 3 4 3 5 6 6 5 4 6 7 6 6 6 2 5 8 16 21 23 25 27 28 28 26 25 27 27 25 22 18 17 17 18 19 20
7 14 11 15 17 9 4 5 6 2 3 3 1 2 7 2 5 6 7 6 5 6 6 6 8 16 18 21 24 26 27 28 27 26 25 25 23 18 18 19 20 21 22 22
3 5 9 7 4 11 6 5 2 3 2 2 6 7 6 4 6 4 4 6 7 6 6 5 12 17 19 20 22 23 26 25 24 24 24 23 23 22 23 24 25 25 26 26
1 4 3 6 6 3 4 7 2 1 1 6 1 2 8 4 5 9 12 10 8 6 6 6 7 12 17 18 19 21 22 23 21 22 23 22 21 22 23 24 25 27 28 29
7 5 8 6 6 6 7 8 5 6 4 4 2 6 5 3 6 7 9 10 8 7 6 7 8 13 18 18 18 19 20 20 19 19 20 19 20 20 20 20 20 20 21 21
8 5 2 5 5 12 6 8 4 5 1 1 3 7 8 4 6 3 10 11 9 8 7 7 8 15 17 17 15 16 18 18 17 17 17 18 19 19 18 18 20 21 22 22
7 5 0 2 6 3 7 8 2 2 3 4 4 5 5 5 2 3 8 10 8 6 7 7 8 15 16 15 14 15 16 17 15 15 15 16 17 18 19 20 21 21 22 23
6 4 2 6 6 8 2 4 4 4 3 4 1 6 5 5 4 8 7 6 8 8 7 7 8 14 15 13 13 14 15 14 14 13 14 17 18 18 18 20 20 21 21 23
4 6 6 3 1 5 4 7 6 5 4 1 3 6 2 5 4 7 6 6 7 7 7 7 11 15 12 12 12 13 13 13 13 12 13 15 16 18 20 21 21 22 24 25
8 2 5 2 1 2 4 4 4 5 3 6 6 5 3 6 6 6 8 8 7 6 7 7 8 9 11 10 11 12 11 11 10 10 12 15 17 19 20 21 22 22 24 25
7 3 6 9 4 6 5 5 5 6 4 5 6 5 3 3 5 4 4 3 6 7 8 6 6 8 10 10 10 9 9 9 9 12 14 15 17 17 19 19 22 23 24 26
4 4 3 3 4 4 6 9 11 9 9 7 5 8 3 2 4 4 3 2 5 6 7 8 7 6 10 9 8 7 7 8 9 10 12 14 16 17 19 21 23 24 26 27
3 2 3 2 3 3 2 4 8 4 4 2 5 4 2 2 3 3 2 2 4 6 7 7 7 9 9 8 7 5 5 6 7 9 12 15 17 19 21 23 25 27 27 29
5 5 3 3 2 2 4 8 8 5 4 7 7 6 4 3 5 3 3 2 4 5 7 8 7 9 11 8 5 4 3 4 6 9 13 15 18 20 22 24 25 27 29 31
5 5 3 3 1 1 3 1 6 7 2 5 6 6 5 5 3 2 3 3 6 2 6 7 11 13 11 7 4 3 1 4 10 12 12 14 18 21 23 25 25 28 29 30
3 5 3 5 4 3 0 4 7 6 3 1 7 5 3 3 3 3 3 3 4 5 8 14 16 14 10 6 4 1 4 8 9 11 13 16 18 20 23 26 27 27 30 32
5 6 4 2 4 7 1 2 5 4 2 6 6 6 5 4 2 4 4 2 3 7 15 17 14 12 9 6 2 2 5 7 9 13 15 16 18 21 25 24 25 27 30 30
3 3 4 2 2 5 3 3 2 5 3 4 6 6 5 4 4 1 3 2 6 9 13 14 12 10 7 4 2 4 6 8 11 13 16 18 21 22 22 24 25 29 31 28
6 6 4 3 2 6 2 4 6 3 3 6 5 4 4 4 2 4 6 6 7 9 11 10 10 7 4 2 2 3 6 9 12 14 17 20 22 23 24 24 27 29 28 26
1 4 4 6 4 1 1 2 4 4 6 5 4 5 4 3 1 2 2 6 6 10 9 7 7 6 4 1 2 6 8 11 14 17 20 23 25 24 23 24 28 24 24 23
1 2 3 3 2 3 4 4 4 4 5 4 2 3 3 2 2 1 2 4 5 9 8 7 7 6 3 2 4 7 10 13 16 19 22 25 25 25 26 25 26 24 22 22
3 4 4 1 2 2 1 2 6 5 5 5 4 3 2 1 1 1 3 5 8 10 9 8 6 3 2 4 7 10 12 14 17 20 23 24 26 26 28 25 23 23 22 23
4 6 5 5 6 4 4 4 4 6 5 5 3 2 2 0 2 3 3 7 10 11 9 7 4 2 4 8 10 12 13 15 17 21 21 23 22 25 24 24 24 19 21 24
Wind_Direction
191 191 191 185 192 166 153 185 215 255 258 268 279 275 278 278 257 216 176 120 77 70 26 55 57 60 62 61 59 54 50 45 48 30 339 315 330 331 352 13 13 7 356 344
188 206 197 144 157 173 145 188 251 283 216 189 306 285 274 268 266 178 162 155 138 90 52 40 58 61 61 62 60 57 55 53 55 64 59 65 73 73 66 65 63 61 57 51
198 168 185 167 158 175 193 192 251 239 334 317 327 290 311 338 105 108 123 140 123 116 112 81 61 66 66 65 66 67 66 66 67 73 85 92 85 73 65 58 58 52 45 39
226 156 184 173 179 158 222 198 210 283 21 260 37 286 295 266 186 146 142 146 154 135 131 99 85 70 73 75 78 76 74 72 72 74 76 76 72 68 58 52 45 39 32 25
179 173 182 175 196 167 217 149 193 222 210 355 286 297 270 154 206 195 182 172 193 160 139 116 97 92 88 87 83 80 77 73 71 70 70 72 69 61 50 38 30 25 21 17
202 145 162 161 169 177 154 81 57 54 83 292 228 186 275 207 211 158 168 179 189 160 150 117 105 103 97 94 87 83 78 73 69 67 63 60 55 45 37 27 21 15 10 8
193 158 159 141 133 69 107 119 284 277 282 229 78 168 253 227 231 184 180 186 186 173 160 138 115 103 104 98 91 85 80 74 68 64 60 54 50 43 36 26 18 13 6 4
159 172 179 173 178 150 184 173 163 199 204 260 114 238 251 228 280 247 166 158 156 172 173 148 129 121 116 105 94 88 81 74 66 61 57 50 43 38 33 25 18 15 9 3
162 184 151 155 121 140 198 202 190 102 13 49 237 289 307 360 19 119 149 145 169 174 169 147 127 128 119 106 98 92 84 76 66 60 52 44 35 28 25 20 16 11 7 1
191 106 132 138 99 81 175 160 110 9 229 249 287 279 246 337 342 132 155 163 162 167 160 140 133 129 117 111 102 90 80 73 64 54 45 37 31 24 18 13 12 8 4 2
136 107 181 137 179 162 161 163 58 123 138 176 303 274 217 272 256 196 183 163 162 173 171 154 139 132 125 114 98 86 75 67 56 48 38 28 23 19 16 15 11 7 3 3
179 123 147 158 259 179 163 168 154 148 214 133 145 274 337 285 274 148 146 152 177 188 172 150 143 139 126 107 92 79 71 62 50 41 32 29 21 14 10 9 8 7 4 2
174 123 106 90 79 335 192 177 127 116 99 187 153 261 355 46 89 134 148 191 196 167 146 139 134 136 122 105 89 76 65 55 48 38 30 22 16 10 8 4 4 3 359 357
95 143 153 189 182 141 176 179 169 144 153 175 219 272 352 50 132 158 136 172 200 170 158 144 136 128 121 104 91 76 63 47 39 28 20 14 11 7 4 358 360 359 357 353
137 135 123 45 133 136 180 180 181 194 200 187 216 204 215 160 221 251 301 131 162 171 151 151 145 137 129 111 97 77 56 38 29 19 12 9 5 1 358 357 357 355 354 350
103 158 114 76 66 110 188 187 182 193 163 209 136 227 177 96 99 55 10 60 158 173 166 154 144 144 131 124 110 90 60 33 16 12 11 3 357 356 355 355 354 350 347 347
145 134 120 175 124 119 294 215 184 179 181 153 193 201 152 88 115 77 17 329 234 201 166 154 149 145 142 138 137 116 55 17 6 7 4 358 352 352 353 350 347 345 345 342
129 101 78 127 100 189 237 312 170 126 94 132 103 106 121 149 109 15 23 327 316 177 150 144 147 144 149 147 132 109 32 5 4 357 351 353 349 348 345 342 342 342 339 337
43 125 109 144 193 290 159 180 151 154 202 189 127 122 105 95 70 353 25 11 298 178 156 157 160 156 144 133 131 125 6 3 352 345 343 351 346 340 338 340 336 333 334 334
49 70 105 102 148 208 226 139 129 130 241 182 142 140 135 104 91 256 346 19 51 122 143 147 147 140 139 140 140 27 10 350 342 341 343 342 338 336 335 327 325 329 332 325
74 39 125 124 234 287 234 158 167 127 212 140 138 143 142 165 195 155 110 103 137 138 137 139 141 143 142 138 58 27 345 338 340 336 337 335 337 330 326 325 325 329 328 320
158 136 168 120 161 264 172 71 162 163 69 130 135 159 178 200 177 151 168 158 144 140 142 146 140 140 127 85 25 341 325 336 337 333 331 332 329 330 327 325 326 328 322 316
197 165 180 174 213 210 11 136 108 122 133 172 168 183 175 156 139 86 156 167 170 168 157 154 145 143 150 153 346 329 334 336 332 331 329 327 326 325 328 325 324 316 317 312
278 147 121 118 216 119 99 86 122 134 136 137 100 121 146 162 100 1 144 166 164 169 170 165 159 166 171 272 315 329 337 335 331 324 323 323 324 326 324 329 324 316 308 303
191 131 143 111 84 77 270 148 148 120 97 97 77 64 63 67 272 156 176 177 178 178 176 171 163 174 248 304 334 337 335 331 323 319 320 324 326 326 325 319 315 310 305 307
192 178 166 213 185 151 181 162 119 111 93 71 68 38 44 34 220 181 196 187 177 174 169 163 174 227 312 322 325 330 331 324 318 318 321 321 317 323 316 310 310 310 310 315